ARIANE 5 R/B (28499 NORAD) Tracking and Keplerian Element Data

This shows tracking and keplerian element data for the satellite.

Feedback or suggestion? Click here.




ElementValue
Catalog28499
NameARIANE 5 R/B
Epoch Orbit2911
Epoch Day12.85346631
Epoch Year2024
RAAN147.5087
Inclination98.16
Eccentricity0.0089516
Argument of Perigee19.3027
Mean Anonmoly341.154
Mean Motion14.81955644
Decay Rate1.269E-05
L11 28499U 04049H 24012.85346631 .00001269 00000+0 15672-3 0 9995
L22 28499 98.1600 147.5087 0089516 19.3027 341.1540 14.81955644 29119



Live tracking and technical data element details for ARIANE 5 R/B (NORAD 28499). ARIANE 5 R/B can be tracked NOW for your location showing map with azimuth and elevation plus other details from your city location.







IsCatalogInMostPopularTable: catalog: 28499, numindb: 378
Update: records affected: 1



GetName: 28499 ARIANE 5 R/B

Hit Count: updated at: Fri, 19 Apr 2024 11:45:54 GMT